Location: Newark
(0.5300°S, 127.4800°E)
Time: 16:59:50
(UTC+00:00)

OTV 5 (USA 277) - Visible Passes

Search period start: 17 July 2019 00:00
Search period end: 27 July 2019 00:00
Orbit: 299 x 335 km, 54.5° (Epoch: 13 July)

Date Brightness Start Highest point End Pass type
(mag) Time Alt. Az. Time Alt. Az. Time Alt. Az.
19 Jul ? 10:35:16 10° NNE 10:36:43 15° NE 10:36:43 15° NE visible
20 Jul ? 10:48:44 10° NNW 10:51:30 81° NE 10:51:33 81° ENE visible
21 Jul ? 11:04:01 10° WNW 11:06:01 18° WSW 11:06:26 17° SW visible
22 Jul ? 21:05:41 10° SE 21:06:22 11° ESE 21:07:03 10° ESE visible
23 Jul ? 09:58:18 10° NW 10:00:56 39° WSW 10:03:34 10° SSE visible
25 Jul ? 20:15:18 21° SE 20:15:49 22° ESE 20:17:55 10° ENE visible
26 Jul ? 20:30:13 51° WNW 20:30:19 52° WNW 20:32:51 10° NNE visible
